Location: Banksville Park
(38.5557°N, 75.1182°W)
Time: 05:49:30
(UTC+00:00)

CENTAUR R/B - Pass Details

Date: 24 January 2021
Orbit: 742 x 1446 km, 63.5° (Epoch: 01 March)

Event Time Altitude Azimuth Distance (km) Brightness Sun altitude
Rises 11:11:31 0° 216° (SW) 3,309 5.1 -12.0°
Reaches altitude 10° 11:13:47 10° 218° (SW) 2,445 4.4 -11.5°
Maximum altitude 11:19:25 77° 304° (NW) 960 2.4 -10.5°
Drops below altitude 10° 11:26:11 10° 31° (NNE) 2,905 5.2 -9.2°
Sets 11:29:06 0° 33° (NNE) 3,978 5.9 -8.7°
